Weather History for KSIF - June, 2013

Change the Weather History Date:

Thursday, June 13, 2013

  Actual Average (KGSO) Record (KGSO)
Temperature  
Mean Temperature 79 °F 75 °F  
Max Temperature 92 °F 84 °F 103 °F (1914)
Min Temperature 66 °F 65 °F 48 °F (1903)
Degree Days  
Heating Degree Days 0 0  
Month to date heating degree days 5  
Since 1 June heating degree days 5  
Since 1 July heating degree days 3617  
Cooling Degree Days 14 10  
Month to date cooling degree days 109  
Year to date cooling degree days 268  
Since 1 June cooling degree days 109  
Growing Degree Days 29 (Base 50)    
Moisture  
Dew Point 69 °F    
Average Humidity 79    
Maximum Humidity 99    
Minimum Humidity 45    
Precipitation  
Precipitation 0.06 in 0.12 in 1.07 in (1982)
Month to date precipitation 1.64  
Year to date precipitation 18.34  
Sea Level Pressure  
Sea Level Pressure 29.76 in    
Wind  
Wind Speed 4 mph (SW)    
Max Wind Speed 14 mph    
Max Gust Speed 24 mph    
Visibility 9 miles    
Events Rain    
T = Trace of Precipitation, MM = Missing Value Source: NWS Daily Summary

Daily Weather History Graph

Daily Weather History Graph

Search for Another Location

Airport or City:

Trip Planner

Search our weather history database for the weather conditions in past years. The results will help you decide how hot, cold, wet, or windy it might be!

Date:

Astronomy

Jun. 13, 2013 Rise Set
Actual Time 6:00 AM EDT 8:38 PM EDT
Civil Twilight 5:30 AM EDT 9:08 PM EDT
Nautical Twilight 4:52 AM EDT 9:46 PM EDT
Astronomical Twilight 4:10 AM EDT 10:29 PM EDT
Moon 10:29 AM EDT (6/13) 11:51 PM EDT (6/13)
Length of Visible Light 15h 38m
Length of Day
14h 37m
Waxing Crescent, 21% of the Moon is Illuminated
Jun 13
Waxing Crescent
Jun 16
First Quarter
Jun 23
Full
Jun 30
Last Quarter
Jul 8
New

Hourly Weather History & Observations

Time (EDT) Temp. Heat Index Dew Point Humidity Pressure Visibility Wind Dir Wind Speed Gust Speed Precip Events Conditions
12:15 AM 73.8 °F - 72.7 °F 96% 29.88 in 7.0 mi Calm Calm - N/A   Clear
12:35 AM 73.4 °F - 72.7 °F 98% 29.88 in 4.0 mi Calm Calm - N/A   Clear
12:55 AM 74.7 °F - 73.6 °F 96% 29.88 in 7.0 mi Calm Calm - N/A   Clear
1:15 AM 74.8 °F - 73.0 °F 94% 29.87 in 7.0 mi Calm Calm - N/A   Clear
1:35 AM 73.8 °F - 72.9 °F 97% 29.87 in 4.0 mi Calm Calm - N/A   Clear
1:55 AM 76.5 °F - 73.4 °F 90% 29.87 in 10.0 mi SW 3.5 mph - N/A   Clear
2:15 AM 76.3 °F - 73.4 °F 91% 29.86 in 10.0 mi SW 3.5 mph - N/A   Clear
2:35 AM 76.3 °F - 73.0 °F 90% 29.85 in 10.0 mi SW 4.6 mph - N/A   Clear
2:55 AM 76.3 °F - 72.9 °F 89% 29.86 in 10.0 mi SW 4.6 mph - N/A   Clear
3:15 AM 76.3 °F - 72.7 °F 89% 29.85 in 10.0 mi WSW 3.5 mph - N/A   Clear
3:35 AM 76.1 °F - 72.9 °F 90% 29.85 in 10.0 mi WSW 3.5 mph - N/A   Clear
3:55 AM 76.1 °F - 72.9 °F 90% 29.85 in 10.0 mi WSW 3.5 mph - N/A   Clear
4:15 AM 75.4 °F - 72.7 °F 91% 29.84 in 10.0 mi Calm Calm - N/A   Clear
4:35 AM 74.3 °F - 72.1 °F 93% 29.83 in 10.0 mi SSW 4.6 mph - N/A   Clear
4:55 AM 73.8 °F - 72.1 °F 95% 29.81 in 7.0 mi SW 4.6 mph - N/A   Clear
5:15 AM 73.4 °F - 71.8 °F 95% 29.81 in 7.0 mi WSW 4.6 mph - N/A   Clear
5:35 AM 73.0 °F - 72.0 °F 96% 29.81 in 7.0 mi WSW 3.5 mph - N/A   Clear
5:55 AM 73.0 °F - 72.1 °F 97% 29.81 in 7.0 mi SW 3.5 mph - N/A   Clear
6:15 AM 72.7 °F - 71.6 °F 96% 29.80 in 5.0 mi Calm Calm - N/A   Clear
6:35 AM 70.7 °F - 70.2 °F 98% 29.80 in 1.2 mi Calm Calm - N/A   Mist
6:55 AM 72.5 °F - 72.1 °F 99% 29.80 in 4.0 mi Calm Calm - N/A   Clear
7:15 AM 73.4 °F - 72.5 °F 97% 29.80 in 7.0 mi Calm Calm - N/A   Clear
7:35 AM 74.3 °F - 72.5 °F 94% 29.79 in 7.0 mi Calm Calm - N/A   Clear
7:55 AM 75.4 °F - 72.9 °F 92% 29.79 in 10.0 mi SW 3.5 mph - N/A   Clear
8:15 AM 77.2 °F - 72.7 °F 86% 29.79 in 10.0 mi SW 3.5 mph - N/A   Clear
8:35 AM 78.1 °F - 72.9 °F 84% 29.79 in 10.0 mi WSW 3.5 mph - N/A   Clear
8:55 AM 78.8 °F - 72.1 °F 80% 29.79 in 10.0 mi SSW 4.6 mph - N/A   Clear
9:15 AM 81.0 °F 85.4 °F 72.5 °F 75% 29.78 in 10.0 mi SW 4.6 mph - N/A   Clear
9:35 AM 83.1 °F 88.1 °F 71.8 °F 68% 29.78 in 10.0 mi SW 6.9 mph - N/A   Clear
9:55 AM 84.6 °F 89.4 °F 70.5 °F 63% 29.78 in 10.0 mi SW 8.1 mph - N/A   Clear
10:15 AM 85.1 °F 89.4 °F 70.0 °F 60% 29.78 in 10.0 mi SW 9.2 mph - N/A   Clear
10:35 AM 85.8 °F 90.4 °F 69.8 °F 59% 29.76 in 10.0 mi SW 10.4 mph - N/A   Clear
10:55 AM 86.9 °F 91.7 °F 69.8 °F 57% 29.76 in 10.0 mi SSW 10.4 mph - N/A   Clear
11:15 AM 87.8 °F 92.2 °F 69.4 °F 54% 29.75 in 10.0 mi WSW 11.5 mph 16.1 mph N/A   Clear
11:35 AM 88.2 °F 92.1 °F 68.7 °F 52% 29.74 in 10.0 mi SW 10.4 mph 17.3 mph N/A   Clear
11:55 AM 88.7 °F 93.0 °F 69.3 °F 52% 29.73 in 10.0 mi SW 10.4 mph 16.1 mph N/A   Clear
12:15 PM 89.6 °F 95.2 °F 70.2 °F 53% 29.72 in 10.0 mi SW 9.2 mph 17.3 mph N/A   Clear
12:35 PM 89.6 °F 94.7 °F 69.8 °F 52% 29.70 in 10.0 mi SW 12.7 mph 17.3 mph N/A   Clear
12:55 PM 90.1 °F 94.4 °F 68.7 °F 49% 29.70 in 10.0 mi SW 11.5 mph 18.4 mph N/A   Clear
1:15 PM 90.5 °F 94.2 °F 68.0 °F 47% 29.69 in 10.0 mi SW 10.4 mph 18.4 mph N/A   Clear
1:35 PM 91.2 °F 95.0 °F 68.0 °F 46% 29.68 in 10.0 mi SW 12.7 mph 18.4 mph N/A   Clear
1:55 PM 91.0 °F 94.7 °F 67.8 °F 46% 29.67 in 10.0 mi SW 11.5 mph 24.2 mph N/A   Scattered Clouds
2:15 PM 91.9 °F 96.4 °F 68.5 °F 46% 29.66 in 10.0 mi SW 11.5 mph 19.6 mph N/A   Clear
2:35 PM 91.9 °F 95.9 °F 67.6 °F 45% 29.66 in 10.0 mi WSW 13.8 mph 18.4 mph N/A   Clear
2:55 PM 92.5 °F 97.4 °F 68.9 °F 46% 29.66 in 10.0 mi WSW 10.4 mph 18.4 mph N/A   Clear
3:15 PM 92.5 °F 96.9 °F 68.4 °F 45% 29.63 in 10.0 mi SSW 12.7 mph 21.9 mph N/A   Clear
3:35 PM 92.5 °F 96.9 °F 68.0 °F 45% 29.63 in 10.0 mi SW 12.7 mph 21.9 mph N/A   Clear
3:55 PM 90.7 °F 94.1 °F 67.1 °F 46% 29.61 in 10.0 mi WSW 10.4 mph 19.6 mph N/A   Scattered Clouds
4:15 PM 72.0 °F - 64.4 °F 77% 29.65 in 2.5 mi SW 5.8 mph 20.7 mph 0.05 in Rain Rain
4:35 PM 70.0 °F - 67.3 °F 91% 29.65 in 10.0 mi NNW 6.9 mph - 0.05 in Rain Light Rain
4:55 PM 70.5 °F - 67.8 °F 91% 29.70 in 10.0 mi WNW 4.6 mph - 0.05 in   Clear
5:15 PM 71.8 °F - 66.4 °F 83% 29.70 in 10.0 mi SSW 5.8 mph - N/A   Clear
5:35 PM 70.0 °F - 64.4 °F 82% 29.71 in 10.0 mi SW 8.1 mph - N/A   Clear
5:55 PM 69.3 °F - 64.0 °F 83% 29.68 in 10.0 mi SW 5.8 mph - N/A   Clear
6:15 PM 69.1 °F - 64.6 °F 86% 29.68 in 10.0 mi SW 6.9 mph - N/A   Clear
6:35 PM 68.9 °F - 64.6 °F 86% 29.69 in 10.0 mi SW 8.1 mph - N/A   Clear
6:55 PM 68.7 °F - 64.9 °F 88% 29.69 in 10.0 mi SW 6.9 mph - N/A   Scattered Clouds
7:15 PM 68.7 °F - 65.5 °F 89% 29.69 in 10.0 mi SW 5.8 mph - N/A   Scattered Clouds
7:35 PM 68.9 °F - 65.8 °F 90% 29.69 in 10.0 mi WSW 3.5 mph - N/A   Scattered Clouds
7:55 PM 69.3 °F - 66.2 °F 90% 29.71 in 10.0 mi SW 5.8 mph - N/A   Clear
8:15 PM 69.3 °F - 66.2 °F 90% 29.71 in 10.0 mi SSW 5.8 mph - N/A   Clear
8:35 PM 69.1 °F - 66.2 °F 91% 29.71 in 10.0 mi South 6.9 mph - N/A   Clear
8:55 PM 69.3 °F - 66.2 °F 90% 29.72 in 10.0 mi Calm Calm - N/A   Clear
9:15 PM 67.6 °F - 65.3 °F 92% 29.72 in 10.0 mi Calm Calm - N/A   Clear
9:35 PM 66.4 °F - 65.1 °F 96% 29.72 in 10.0 mi WSW 4.6 mph - N/A   Clear
9:55 PM 66.7 °F - 65.8 °F 97% 29.72 in 10.0 mi Calm Calm - N/A   Clear
10:15 PM 66.4 °F - 64.6 °F 94% 29.73 in 10.0 mi Calm Calm - N/A   Clear
10:35 PM 67.8 °F - 64.0 °F 88% 29.75 in 10.0 mi WNW 3.5 mph - N/A   Clear
10:55 PM 69.8 °F - 63.0 °F 79% 29.77 in 10.0 mi NNW 3.5 mph - N/A   Clear
11:15 PM 69.4 °F - 62.2 °F 78% 29.77 in 10.0 mi NW 4.6 mph - N/A   Clear
11:35 PM 70.2 °F - 58.8 °F 67% 29.78 in 10.0 mi NW 6.9 mph - 0.01 in   Clear
11:55 PM 69.4 °F - 57.9 °F 67% 29.78 in 10.0 mi NNW 5.8 mph - 0.01 in   Clear